| time (UTC) | temp F | wind direction | speed MPH | gust MPH | rain 1hr in | rain 24hr in | rain mn in | humidity % | barometer mb |
| 20260503195248 | 58 | 233 | 17.0 | 24.0 | 0.00 | 0.02 | 0.02 | 61 | 1004.9 |
| 20260503194728 | 58 | 219 | 15.0 | 22.0 | 0.00 | 0.02 | 0.02 | 62 | 1005.0 |
| 20260503194239 | 58 | 226 | 16.0 | 21.0 | 0.00 | 0.02 | 0.02 | 61 | 1005.0 |
| 20260503193743 | 57 | 194 | 10.0 | 24.0 | 0.00 | 0.02 | 0.02 | 61 | 1005.0 |
| 20260503193246 | 57 | 202 | 11.0 | 24.0 | 0.00 | 0.02 | 0.02 | 62 | 1005.1 |
| 20260503192742 | 57 | 196 | 11.0 | 23.0 | 0.00 | 0.02 | 0.02 | 61 | 1005.1 |
| 20260503192244 | 58 | 215 | 17.0 | 23.0 | 0.00 | 0.02 | 0.02 | 60 | 1005.2 |
| 20260503191747 | 58 | 190 | 13.0 | 22.0 | 0.00 | 0.02 | 0.02 | 61 | 1005.3 |
| 20260503191226 | 57 | 259 | 13.0 | 23.0 | 0.00 | 0.02 | 0.02 | 62 | 1005.3 |
| 20260503190738 | 57 | 203 | 14.0 | 23.0 | 0.00 | 0.02 | 0.02 | 62 | 1005.3 |
| 20260503190241 | 57 | 211 | 13.0 | 22.0 | 0.00 | 0.02 | 0.02 | 63 | 1005.4 |
| 20260503185733 | 57 | 217 | 10.0 | 25.0 | 0.00 | 0.02 | 0.02 | 64 | 1005.4 |
| 20260503185251 | 56 | 218 | 17.0 | 24.0 | 0.00 | 0.02 | 0.02 | 64 | 1005.4 |
| 20260503184734 | 55 | 217 | 16.0 | 24.0 | 0.00 | 0.02 | 0.02 | 66 | 1005.5 |
| 20260503184246 | 55 | 252 | 13.0 | 23.0 | 0.00 | 0.02 | 0.02 | 66 | 1005.4 |
| 20260503183745 | 54 | 239 | 14.0 | 22.0 | 0.00 | 0.02 | 0.02 | 67 | 1005.5 |
| 20260503183250 | 54 | 191 | 13.0 | 25.0 | 0.00 | 0.02 | 0.02 | 69 | 1005.5 |
| 20260503182745 | 53 | 203 | 12.0 | 27.0 | 0.00 | 0.02 | 0.02 | 69 | 1005.6 |
| 20260503182250 | 53 | 206 | 11.0 | 22.0 | 0.00 | 0.02 | 0.02 | 70 | 1005.6 |
| 20260503181736 | 53 | 216 | 11.0 | 20.0 | 0.00 | 0.02 | 0.02 | 71 | 1005.7 |
| 20260503181250 | 52 | 209 | 12.0 | 20.0 | 0.00 | 0.02 | 0.02 | 72 | 1005.7 |
| 20260503180738 | 52 | 211 | 10.0 | 19.0 | 0.00 | 0.02 | 0.02 | 73 | 1005.8 |
| 20260503180251 | 52 | 198 | 8.0 | 20.0 | 0.00 | 0.02 | 0.02 | 75 | 1005.8 |
| 20260503175725 | 51 | 188 | 10.0 | 19.0 | 0.00 | 0.02 | 0.02 | 76 | 1005.9 |
| 20260503175239 | 51 | 209 | 9.0 | 16.0 | 0.00 | 0.02 | 0.02 | 78 | 1006.0 |
| 20260503174740 | 51 | 198 | 9.0 | 13.0 | 0.00 | 0.02 | 0.02 | 78 | 1006.1 |
| 20260503174228 | 50 | 174 | 8.0 | 13.0 | 0.00 | 0.02 | 0.02 | 79 | 1006.1 |
| 20260503173738 | 50 | 219 | 7.0 | 19.0 | 0.00 | 0.02 | 0.02 | 81 | 1006.1 |
| 20260503173250 | 50 | 210 | 11.0 | 19.0 | 0.00 | 0.02 | 0.02 | 81 | 1006.1 |
| 20260503172745 | 50 | 195 | 5.0 | 16.0 | 0.00 | 0.02 | 0.02 | 82 | 1006.3 |
| 20260503172229 | 50 | 201 | 8.0 | 16.0 | 0.00 | 0.02 | 0.02 | 83 | 1006.3 |
| 20260503171737 | 49 | 193 | 6.0 | 12.0 | 0.00 | 0.02 | 0.02 | 83 | 1006.4 |
| 20260503171242 | 49 | 215 | 8.0 | 13.0 | 0.00 | 0.02 | 0.02 | 82 | 1006.4 |
| 20260503170746 | 49 | 227 | 9.0 | 16.0 | 0.00 | 0.02 | 0.02 | 83 | 1006.6 |
| 20260503170230 | 49 | 223 | 9.0 | 14.0 | 0.00 | 0.02 | 0.02 | 83 | 1006.7 |
| 20260503150733 | 47 | 213 | 10.0 | 18.0 | 0.00 | 0.02 | 0.02 | 81 | 1007.1 |
| 20260503150247 | 47 | 220 | 10.0 | 18.0 | 0.00 | 0.02 | 0.02 | 81 | 1007.3 |
| 20260503140251 | 44 | 192 | 5.0 | 12.0 | 0.00 | 0.02 | 0.02 | 85 | 1007.4 |
| 20260503131249 | 41 | 139 | 3.0 | 9.0 | 0.01 | 0.02 | 0.02 | 87 | 1007.7 |
| 20260503130735 | 40 | 145 | 5.0 | 10.0 | 0.01 | 0.02 | 0.02 | 86 | 1007.9 |
| 20260503130250 | 40 | 142 | 5.0 | 10.0 | 0.01 | 0.02 | 0.02 | 86 | 1007.8 |
| 20260503110735 | 36 | 139 | 2.0 | 7.0 | 0.00 | 0.00 | 0.00 | 78 | 1008.8 |
| 20260503110250 | 35 | 138 | 4.0 | 7.0 | 0.00 | 0.00 | 0.00 | 80 | 1008.7 |
| 20260503100249 | 31 | 126 | 4.0 | 7.0 | 0.00 | 0.00 | 0.00 | 87 | 1009.0 |
| 20260503090248 | 29 | 315 | 0.0 | 0.0 | 0.00 | 0.00 | 0.00 | 89 | 1010.0 |
| 20260503081225 | 29 | 315 | 0.0 | 0.0 | 0.00 | 0.00 | 0.00 | 89 | 1010.5 |
| 20260503080737 | 29 | 315 | 0.0 | 0.0 | 0.00 | 0.00 | 0.00 | 89 | 1010.6 |
| 20260503080245 | 29 | 315 | 0.0 | 0.0 | 0.00 | 0.00 | 0.00 | 89 | 1010.7 |
| 20260503072743 | 29 | 315 | 0.0 | 0.0 | 0.00 | 0.00 | 0.00 | 89 | 1011.1 |
| 20260503072250 | 29 | 315 | 0.0 | 3.0 | 0.00 | 0.00 | 0.00 | 89 | 1011.2 |
| 20260503071738 | 29 | 315 | 0.0 | 4.0 | 0.00 | 0.00 | 0.00 | 89 | 1011.2 |
| 20260503071225 | 29 | 315 | 2.0 | 4.0 | 0.00 | 0.00 | 0.00 | 89 | 1011.2 |
| 20260503070741 | 29 | 315 | 2.0 | 3.0 | 0.00 | 0.00 | 0.00 | 89 | 1011.3 |
| 20260503070228 | 29 | 315 | 0.0 | 0.0 | 0.00 | 0.00 | 0.00 | 89 | 1011.4 |
| 20260503060249 | 30 | 315 | 0.0 | 0.0 | 0.00 | 0.00 | 0.00 | 88 | 1012.5 |
| 20260503054739 | 30 | 315 | 0.0 | 0.0 | 0.00 | 0.00 | 0.00 | 87 | 1012.7 |
| 20260503054246 | 30 | 315 | 0.0 | 0.0 | 0.00 | 0.00 | 0.00 | 86 | 1012.7 |
| 20260503053731 | 30 | 315 | 0.0 | 0.0 | 0.00 | 0.00 | 0.00 | 84 | 1012.7 |
| 20260503053246 | 31 | 315 | 0.0 | 0.0 | 0.00 | 0.00 | 0.00 | 85 | 1012.8 |
| 20260503052744 | 31 | 315 | 0.0 | 0.0 | 0.00 | 0.00 | 0.00 | 86 | 1012.8 |
| 20260503052226 | 31 | 315 | 0.0 | 0.0 | 0.00 | 0.00 | 0.00 | 86 | 1012.9 |
| 20260503051741 | 31 | 315 | 0.0 | 0.0 | 0.00 | 0.00 | 0.00 | 85 | 1012.9 |
| 20260503051247 | 31 | 315 | 0.0 | 0.0 | 0.00 | 0.00 | 0.00 | 85 | 1013.0 |
| 20260503050731 | 31 | 315 | 0.0 | 0.0 | 0.00 | 0.00 | 0.00 | 87 | 1013.0 |
| 20260503050244 | 31 | 315 | 0.0 | 8.0 | 0.00 | 0.00 | 0.00 | 87 | 1013.1 |
| 20260503045742 | 30 | 315 | 3.0 | 8.0 | 0.00 | 0.00 | 0.00 | 89 | 1013.1 |
| 20260503045228 | 30 | 315 | 0.0 | 0.0 | 0.00 | 0.00 | 0.00 | 89 | 1013.1 |
| 20260503044744 | 30 | 315 | 0.0 | 0.0 | 0.00 | 0.00 | 0.00 | 89 | 1013.1 |
| 20260503044246 | 30 | 315 | 0.0 | 0.0 | 0.00 | 0.00 | 0.00 | 89 | 1013.1 |
| 20260503043731 | 30 | 315 | 0.0 | 0.0 | 0.00 | 0.00 | 0.00 | 89 | 1013.2 |
| 20260503043246 | 30 | 315 | 0.0 | 0.0 | 0.00 | 0.00 | 0.00 | 89 | 1013.2 |
| 20260503042744 | 30 | 315 | 0.0 | 0.0 | 0.00 | 0.00 | 0.00 | 89 | 1013.2 |
| 20260503042231 | 30 | 315 | 0.0 | 0.0 | 0.00 | 0.00 | 0.00 | 89 | 1013.3 |
| 20260503041746 | 30 | 315 | 0.0 | 0.0 | 0.00 | 0.00 | 0.00 | 89 | 1013.3 |
| 20260503041233 | 31 | 315 | 0.0 | 0.0 | 0.00 | 0.00 | 0.00 | 89 | 1013.3 |
| 20260503040748 | 31 | 315 | 0.0 | 0.0 | 0.00 | 0.00 | 0.00 | 89 | 1013.4 |
| 20260503040250 | 30 | 315 | 0.0 | 0.0 | 0.00 | 0.00 | 0.00 | 89 | 1013.5 |
| 20260503035740 | 30 | 315 | 0.0 | 0.0 | 0.00 | 0.00 | 0.00 | 89 | 1013.5 |
| 20260503035247 | 30 | 315 | 0.0 | 0.0 | 0.00 | 0.00 | 0.00 | 89 | 1013.4 |
| 20260503034732 | 31 | 315 | 0.0 | 0.0 | 0.00 | 0.00 | 0.00 | 89 | 1013.5 |
| 20260503034247 | 31 | 315 | 0.0 | 0.0 | 0.00 | 0.00 | 0.00 | 89 | 1013.5 |
| 20260503033734 | 31 | 315 | 0.0 | 0.0 | 0.00 | 0.00 | 0.00 | 89 | 1013.6 |
| 20260503033248 | 31 | 315 | 0.0 | 0.0 | 0.00 | 0.00 | 0.00 | 89 | 1013.7 |
| 20260503032726 | 31 | 315 | 0.0 | 0.0 | 0.00 | 0.00 | 0.00 | 89 | 1013.7 |
| 20260503032237 | 31 | 315 | 0.0 | 0.0 | 0.00 | 0.00 | 0.00 | 89 | 1013.8 |
| 20260503031745 | 31 | 315 | 0.0 | 0.0 | 0.00 | 0.00 | 0.00 | 89 | 1013.8 |
| 20260503031252 | 31 | 315 | 0.0 | 0.0 | 0.00 | 0.00 | 0.00 | 89 | 1013.9 |
| 20260503030738 | 31 | 315 | 0.0 | 0.0 | 0.00 | 0.00 | 0.00 | 89 | 1014.0 |
| 20260503030252 | 31 | 315 | 0.0 | 0.0 | 0.00 | 0.00 | 0.00 | 89 | 1014.0 |
| 20260503025731 | 32 | 315 | 0.0 | 0.0 | 0.00 | 0.00 | 0.00 | 88 | 1014.0 |
| 20260503025245 | 32 | 315 | 0.0 | 0.0 | 0.00 | 0.00 | 0.00 | 88 | 1014.1 |
| 20260503024747 | 32 | 315 | 0.0 | 0.0 | 0.00 | 0.00 | 0.00 | 88 | 1014.2 |
| 20260503024251 | 32 | 315 | 0.0 | 0.0 | 0.00 | 0.00 | 0.00 | 88 | 1014.2 |
| 20260503023738 | 33 | 315 | 0.0 | 0.0 | 0.00 | 0.00 | 0.00 | 88 | 1014.3 |
| 20260503023244 | 33 | 315 | 0.0 | 0.0 | 0.00 | 0.00 | 0.00 | 88 | 1014.3 |
| 20260503022742 | 33 | 315 | 0.0 | 0.0 | 0.00 | 0.00 | 0.00 | 88 | 1014.3 |
| 20260503022229 | 33 | 315 | 0.0 | 0.0 | 0.00 | 0.00 | 0.00 | 87 | 1014.3 |
| 20260503021744 | 33 | 315 | 0.0 | 0.0 | 0.00 | 0.00 | 0.00 | 87 | 1014.3 |
| 20260503021229 | 33 | 315 | 0.0 | 0.0 | 0.00 | 0.00 | 0.00 | 87 | 1014.3 |
| 20260503020740 | 34 | 315 | 0.0 | 0.0 | 0.00 | 0.00 | 0.00 | 87 | 1014.3 |
| 20260503020248 | 34 | 315 | 0.0 | 0.0 | 0.00 | 0.00 | 0.00 | 87 | 1014.3 |
| 20260503015726 | 34 | 315 | 0.0 | 0.0 | 0.00 | 0.00 | 0.00 | 86 | 1014.3 |
| 20260503015241 | 35 | 315 | 0.0 | 0.0 | 0.00 | 0.00 | 0.00 | 85 | 1014.3 |
| 20260503014728 | 35 | 315 | 0.0 | 0.0 | 0.00 | 0.00 | 0.00 | 84 | 1014.3 |
| 20260503014244 | 35 | 315 | 0.0 | 0.0 | 0.00 | 0.00 | 0.00 | 84 | 1014.3 |
| 20260503013731 | 36 | 315 | 0.0 | 0.0 | 0.00 | 0.00 | 0.00 | 83 | 1014.2 |
| 20260503013246 | 36 | 315 | 0.0 | 0.0 | 0.00 | 0.00 | 0.00 | 82 | 1014.2 |
| 20260503012726 | 36 | 315 | 0.0 | 0.0 | 0.00 | 0.00 | 0.00 | 82 | 1014.2 |
| 20260503012237 | 37 | 315 | 0.0 | 0.0 | 0.00 | 0.00 | 0.00 | 81 | 1014.2 |
| 20260503011724 | 37 | 315 | 0.0 | 0.0 | 0.00 | 0.00 | 0.00 | 80 | 1014.1 |
| 20260503011241 | 38 | 315 | 0.0 | 0.0 | 0.00 | 0.00 | 0.00 | 80 | 1014.1 |
| 20260503010749 | 38 | 315 | 0.0 | 0.0 | 0.00 | 0.00 | 0.00 | 79 | 1014.1 |
| 20260503010236 | 39 | 315 | 0.0 | 0.0 | 0.00 | 0.00 | 0.00 | 76 | 1014.1 |
| 20260503005736 | 39 | 315 | 0.0 | 0.0 | 0.00 | 0.00 | 0.00 | 77 | 1014.1 |
| 20260503005252 | 39 | 315 | 0.0 | 0.0 | 0.00 | 0.00 | 0.00 | 75 | 1014.1 |
| 20260503004739 | 40 | 315 | 0.0 | 0.0 | 0.00 | 0.00 | 0.00 | 75 | 1014.0 |
| 20260503004242 | 40 | 315 | 0.0 | 0.0 | 0.00 | 0.00 | 0.00 | 71 | 1014.0 |
| 20260503003726 | 40 | 315 | 0.0 | 0.0 | 0.00 | 0.00 | 0.00 | 71 | 1014.0 |
| 20260503003243 | 40 | 315 | 0.0 | 0.0 | 0.00 | 0.00 | 0.00 | 71 | 1014.0 |
| 20260503002742 | 40 | 315 | 0.0 | 0.0 | 0.00 | 0.00 | 0.00 | 70 | 1014.1 |
| 20260503002229 | 41 | 315 | 0.0 | 2.0 | 0.00 | 0.00 | 0.00 | 70 | 1014.1 |
| 20260503001725 | 41 | 315 | 0.0 | 5.0 | 0.00 | 0.00 | 0.00 | 69 | 1014.2 |
| 20260503001242 | 42 | 315 | 3.0 | 5.0 | 0.00 | 0.00 | 0.00 | 68 | 1014.2 |
| 20260503000730 | 42 | 315 | 3.0 | 6.0 | 0.00 | 0.00 | 0.00 | 66 | 1014.2 |
| 20260503000226 | 42 | 315 | 4.0 | 6.0 | 0.00 | 0.00 | 0.00 | 63 | 1014.2 |
| 20260502235748 | 42 | 312 | 1.0 | 8.0 | 0.00 | 0.00 | 0.00 | 62 | 1014.3 |
| 20260502235237 | 43 | 312 | 3.0 | 9.0 | 0.00 | 0.00 | 0.00 | 62 | 1014.3 |
| 20260502234725 | 44 | 311 | 6.0 | 9.0 | 0.00 | 0.00 | 0.00 | 58 | 1014.4 |
| 20260502234240 | 45 | 323 | 1.0 | 8.0 | 0.00 | 0.00 | 0.00 | 54 | 1014.4 |
| 20260502233728 | 45 | 328 | 1.0 | 6.0 | 0.00 | 0.00 | 0.00 | 52 | 1014.4 |
| 20260502233243 | 46 | 326 | 5.0 | 6.0 | 0.00 | 0.00 | 0.00 | 50 | 1014.3 |
| 20260502232743 | 46 | 325 | 3.0 | 5.0 | 0.00 | 0.00 | 0.00 | 48 | 1014.4 |
| 20260502232230 | 46 | 325 | 3.0 | 6.0 | 0.00 | 0.00 | 0.00 | 46 | 1014.4 |
| 20260502231742 | 46 | 325 | 4.0 | 6.0 | 0.00 | 0.00 | 0.00 | 46 | 1014.4 |
| 20260502231250 | 46 | 325 | 1.0 | 5.0 | 0.00 | 0.00 | 0.00 | 46 | 1014.5 |
| 20260502230738 | 47 | 325 | 4.0 | 6.0 | 0.00 | 0.00 | 0.00 | 46 | 1014.6 |
| 20260502230244 | 47 | 325 | 4.0 | 8.0 | 0.00 | 0.00 | 0.00 | 45 | 1014.6 |
| 20260502225742 | 47 | 325 | 4.0 | 8.0 | 0.00 | 0.00 | 0.00 | 45 | 1014.6 |
| 20260502225230 | 47 | 326 | 5.0 | 9.0 | 0.00 | 0.00 | 0.00 | 44 | 1014.7 |
| 20260502224726 | 47 | 321 | 4.0 | 9.0 | 0.00 | 0.00 | 0.00 | 44 | 1014.8 |
| 20260502224243 | 47 | 316 | 0.0 | 0.0 | 0.00 | 0.00 | 0.00 | 44 | 1014.8 |
| 20260502223726 | 47 | 322 | 0.0 | 5.0 | 0.00 | 0.00 | 0.00 | 42 | 1014.8 |
| 20260502223242 | 47 | 322 | 0.0 | 6.0 | 0.00 | 0.00 | 0.00 | 42 | 1014.8 |
| 20260502222741 | 47 | 322 | 4.0 | 8.0 | 0.00 | 0.00 | 0.00 | 43 | 1014.9 |
| 20260502222228 | 47 | 323 | 5.0 | 9.0 | 0.00 | 0.00 | 0.00 | 43 | 1015.0 |
| 20260502221743 | 47 | 304 | 6.0 | 10.0 | 0.00 | 0.00 | 0.00 | 44 | 1015.0 |
| 20260502221228 | 47 | 301 | 7.0 | 10.0 | 0.00 | 0.00 | 0.00 | 44 | 1015.1 |
| 20260502220744 | 47 | 313 | 7.0 | 10.0 | 0.00 | 0.00 | 0.00 | 44 | 1015.2 |
| 20260502220230 | 47 | 313 | 6.0 | 10.0 | 0.00 | 0.00 | 0.00 | 42 | 1015.2 |
| 20260502215752 | 47 | 302 | 6.0 | 10.0 | 0.00 | 0.00 | 0.00 | 42 | 1015.2 |
| 20260502215239 | 47 | 307 | 5.0 | 9.0 | 0.00 | 0.00 | 0.00 | 43 | 1015.2 |
| 20260502214726 | 47 | 295 | 4.0 | 11.0 | 0.00 | 0.00 | 0.00 | 44 | 1015.2 |
| 20260502214242 | 47 | 279 | 8.0 | 11.0 | 0.00 | 0.00 | 0.00 | 44 | 1015.3 |
| 20260502213728 | 47 | 313 | 9.0 | 11.0 | 0.00 | 0.00 | 0.00 | 45 | 1015.3 |
| 20260502213244 | 47 | 300 | 7.0 | 12.0 | 0.00 | 0.00 | 0.00 | 45 | 1015.4 |
| 20260502212742 | 47 | 309 | 7.0 | 12.0 | 0.00 | 0.00 | 0.00 | 45 | 1015.4 |
| 20260502212248 | 46 | 300 | 7.0 | 11.0 | 0.00 | 0.00 | 0.00 | 44 | 1015.4 |
| 20260502211751 | 46 | 294 | 6.0 | 12.0 | 0.00 | 0.00 | 0.00 | 45 | 1015.5 |
| 20260502211238 | 46 | 287 | 8.0 | 12.0 | 0.00 | 0.00 | 0.00 | 45 | 1015.5 |
| 20260502210744 | 47 | 295 | 9.0 | 12.0 | 0.00 | 0.00 | 0.00 | 47 | 1015.6 |
| 20260502210249 | 47 | 305 | 8.0 | 13.0 | 0.00 | 0.00 | 0.00 | 43 | 1015.6 |
| 20260502205728 | 46 | 294 | 8.0 | 13.0 | 0.00 | 0.00 | 0.00 | 46 | 1015.7 |
| 20260502205243 | 46 | 308 | 7.0 | 12.0 | 0.00 | 0.00 | 0.00 | 45 | 1015.7 |
| 20260502204729 | 46 | 319 | 7.0 | 12.0 | 0.00 | 0.00 | 0.00 | 44 | 1015.8 |
| 20260502204244 | 46 | 286 | 8.0 | 11.0 | 0.00 | 0.00 | 0.00 | 44 | 1015.8 |
| 20260502203745 | 46 | 308 | 5.0 | 13.0 | 0.00 | 0.00 | 0.00 | 46 | 1015.9 |
| 20260502203252 | 46 | 307 | 8.0 | 14.0 | 0.00 | 0.00 | 0.00 | 43 | 1015.9 |
| 20260502202728 | 46 | 290 | 9.0 | 14.0 | 0.00 | 0.00 | 0.00 | 44 | 1015.9 |
| 20260502202245 | 46 | 290 | 8.0 | 13.0 | 0.00 | 0.00 | 0.00 | 44 | 1016.0 |
| 20260502201731 | 46 | 302 | 8.0 | 14.0 | 0.00 | 0.00 | 0.00 | 45 | 1016.0 |
| 20260502201246 | 45 | 298 | 10.0 | 14.0 | 0.00 | 0.00 | 0.00 | 45 | 1016.2 |
| 20260502200732 | 45 | 301 | 10.0 | 16.0 | 0.00 | 0.00 | 0.00 | 46 | 1016.2 |
| 20260502200246 | 45 | 292 | 12.0 | 16.0 | 0.00 | 0.00 | 0.00 | 45 | 1016.3 |
| 20260502195739 | 45 | 278 | 11.0 | 16.0 | 0.00 | 0.00 | 0.00 | 44 | 1016.3 |